TimeCDT,TemperatureF,Dew PointF,Humidity,Sea Level PressureIn,VisibilityMPH,Wind Direction,Wind SpeedMPH,Gust SpeedMPH,PrecipitationIn,Events,Conditions,WindDirDegrees,DateUTC
12:15 AM,78.8,69.3,72,30.27,10.0,SE,5.8,-,N/A,,Clear,140,2013-07-17 05:15:00
12:35 AM,78.4,69.3,73,30.28,10.0,SE,5.8,-,N/A,,Clear,140,2013-07-17 05:35:00
12:55 AM,78.3,69.4,74,30.28,10.0,SSE,4.6,-,N/A,,Clear,150,2013-07-17 05:55:00
1:15 AM,77.9,69.8,76,30.28,10.0,South,3.5,-,N/A,,Clear,170,2013-07-17 06:15:00
1:35 AM,78.3,70.0,76,30.28,10.0,South,5.8,-,N/A,,Clear,170,2013-07-17 06:35:00
1:55 AM,77.9,69.8,76,30.28,10.0,SSE,4.6,-,N/A,,Clear,160,2013-07-17 06:55:00
2:15 AM,77.7,69.8,76,30.28,10.0,South,3.5,-,N/A,,Clear,170,2013-07-17 07:15:00
2:35 AM,77.2,69.8,78,30.28,10.0,South,3.5,-,N/A,,Clear,170,2013-07-17 07:35:00
2:55 AM,77.0,69.8,78,30.28,10.0,SSE,4.6,-,N/A,,Clear,150,2013-07-17 07:55:00
3:15 AM,75.4,69.4,82,30.28,10.0,SE,3.5,-,N/A,,Clear,140,2013-07-17 08:15:00
3:35 AM,74.3,69.8,86,30.28,10.0,SE,4.6,-,N/A,,Clear,140,2013-07-17 08:35:00
3:55 AM,73.9,69.8,87,30.28,10.0,SE,4.6,-,N/A,,Clear,140,2013-07-17 08:55:00
4:15 AM,73.2,69.8,89,30.28,10.0,SE,3.5,-,N/A,,Clear,130,2013-07-17 09:15:00
4:35 AM,72.9,69.8,90,30.27,10.0,SE,4.6,-,N/A,,Clear,130,2013-07-17 09:35:00
4:55 AM,73.2,69.8,89,30.27,10.0,SE,4.6,-,N/A,,Clear,130,2013-07-17 09:55:00
5:15 AM,73.0,69.6,89,30.28,10.0,SE,3.5,-,N/A,,Clear,140,2013-07-17 10:15:00
5:35 AM,72.7,69.4,90,30.28,10.0,Calm,Calm,-,N/A,,Clear,0,2013-07-17 10:35:00
5:55 AM,73.2,69.6,88,30.28,10.0,Calm,Calm,-,N/A,,Clear,0,2013-07-17 10:55:00
6:15 AM,71.6,68.9,91,30.28,10.0,Calm,Calm,-,N/A,,Clear,0,2013-07-17 11:15:00
6:35 AM,68.7,67.1,95,30.29,10.0,Calm,Calm,-,N/A,,Clear,0,2013-07-17 11:35:00
6:55 AM,70.7,68.5,93,30.30,10.0,Calm,Calm,-,N/A,,Clear,0,2013-07-17 11:55:00
7:15 AM,72.7,70.0,91,30.30,5.0,Calm,Calm,-,N/A,,Clear,0,2013-07-17 12:15:00
7:35 AM,75.7,70.7,84,30.30,10.0,SW,3.5,-,N/A,,Clear,220,2013-07-17 12:35:00
7:55 AM,76.5,70.2,81,30.31,10.0,WSW,5.8,-,N/A,,Clear,240,2013-07-17 12:55:00
8:15 AM,78.1,69.8,76,30.31,10.0,Calm,Calm,-,N/A,,Clear,0,2013-07-17 13:15:00
8:35 AM,79.9,69.1,69,30.31,10.0,Calm,Calm,-,N/A,,Clear,0,2013-07-17 13:35:00
8:55 AM,80.6,68.4,66,30.31,10.0,Calm,Calm,-,N/A,,Clear,0,2013-07-17 13:55:00
9:15 AM,82.0,69.3,65,30.31,10.0,Calm,Calm,-,N/A,,Clear,0,2013-07-17 14:15:00
9:35 AM,82.4,69.6,65,30.31,10.0,Calm,Calm,-,N/A,,Clear,0,2013-07-17 14:35:00
9:55 AM,83.5,69.1,62,30.31,10.0,SSW,3.5,-,N/A,,Clear,200,2013-07-17 14:55:00
10:15 AM,84.2,68.5,59,30.31,10.0,Calm,Calm,-,N/A,,Clear,0,2013-07-17 15:15:00
10:35 AM,85.3,70.7,62,30.31,10.0,SW,4.6,-,N/A,,Clear,220,2013-07-17 15:35:00
10:55 AM,85.8,70.0,59,30.31,10.0,SSW,4.6,-,N/A,,Clear,210,2013-07-17 15:55:00
11:15 AM,87.1,70.0,57,30.31,10.0,South,4.6,-,N/A,,Clear,190,2013-07-17 16:15:00
11:35 AM,87.1,68.5,54,30.31,10.0,SSE,5.8,-,N/A,,Clear,160,2013-07-17 16:35:00
11:55 AM,87.3,69.1,55,30.31,10.0,SSW,5.8,-,N/A,,Clear,210,2013-07-17 16:55:00
12:15 PM,88.5,68.4,51,30.31,10.0,SSW,5.8,-,N/A,,Clear,200,2013-07-17 17:15:00
12:35 PM,89.1,67.8,49,30.30,10.0,South,5.8,-,N/A,,Clear,190,2013-07-17 17:35:00
12:55 PM,89.4,68.9,51,30.30,10.0,SSW,9.2,-,N/A,,Clear,200,2013-07-17 17:55:00
1:15 PM,90.7,69.1,49,30.30,10.0,SSW,10.4,17.3,N/A,,Clear,210,2013-07-17 18:15:00
1:35 PM,90.3,69.1,49,30.29,10.0,South,9.2,-,N/A,,Scattered Clouds,190,2013-07-17 18:35:00
1:55 PM,90.1,68.2,48,30.28,10.0,SSE,10.4,-,N/A,,Scattered Clouds,150,2013-07-17 18:55:00
2:15 PM,90.1,68.5,49,30.28,10.0,SSW,9.2,16.1,N/A,,Scattered Clouds,210,2013-07-17 19:15:00
2:35 PM,91.2,67.6,46,30.27,10.0,South,10.4,-,N/A,,Scattered Clouds,180,2013-07-17 19:35:00
2:55 PM,91.4,67.3,45,30.26,10.0,South,8.1,-,N/A,,Clear,180,2013-07-17 19:55:00
3:15 PM,91.4,67.3,45,30.26,10.0,South,8.1,-,N/A,,Clear,170,2013-07-17 20:15:00
3:35 PM,91.6,67.3,45,30.25,10.0,SSW,9.2,-,N/A,,Clear,200,2013-07-17 20:35:00
3:55 PM,92.1,67.6,44,30.25,10.0,SSW,8.1,18.4,N/A,,Clear,210,2013-07-17 20:55:00
4:15 PM,92.3,66.7,43,30.24,10.0,South,11.5,-,N/A,,Clear,190,2013-07-17 21:15:00
4:35 PM,91.9,66.2,43,30.23,10.0,South,9.2,-,N/A,,Clear,190,2013-07-17 21:35:00
4:55 PM,92.3,66.9,43,30.22,10.0,SW,9.2,-,N/A,,Clear,220,2013-07-17 21:55:00
5:15 PM,91.9,66.4,43,30.22,10.0,South,8.1,-,N/A,,Clear,180,2013-07-17 22:15:00
5:35 PM,91.9,66.2,43,30.21,10.0,SSW,10.4,-,N/A,,Clear,200,2013-07-17 22:35:00
5:55 PM,91.4,67.3,45,30.21,10.0,SSW,8.1,-,N/A,,Clear,200,2013-07-17 22:55:00
6:15 PM,91.6,66.9,44,30.20,10.0,South,9.2,-,N/A,,Clear,190,2013-07-17 23:15:00
6:35 PM,91.4,67.3,45,30.19,10.0,South,8.1,-,N/A,,Clear,180,2013-07-17 23:35:00
6:55 PM,90.9,67.6,46,30.19,10.0,South,6.9,-,N/A,,Clear,180,2013-07-17 23:55:00
7:15 PM,90.5,67.5,47,30.19,10.0,South,6.9,-,N/A,,Clear,170,2013-07-18 00:15:00
7:35 PM,89.6,68.5,50,30.19,10.0,SSE,6.9,-,N/A,,Clear,150,2013-07-18 00:35:00
7:55 PM,88.7,68.9,52,30.19,10.0,SSE,5.8,-,N/A,,Clear,150,2013-07-18 00:55:00
8:15 PM,88.0,69.8,55,30.19,10.0,SSE,4.6,-,N/A,,Clear,150,2013-07-18 01:15:00
8:35 PM,86.7,69.8,57,30.19,10.0,SSE,5.8,-,N/A,,Clear,150,2013-07-18 01:35:00
8:55 PM,85.8,70.2,59,30.18,10.0,SE,5.8,-,N/A,,Scattered Clouds,140,2013-07-18 01:55:00
9:15 PM,84.6,71.6,65,30.18,10.0,SE,8.1,-,N/A,,Scattered Clouds,140,2013-07-18 02:15:00
9:35 PM,84.2,71.6,66,30.18,10.0,SE,8.1,-,N/A,,Clear,140,2013-07-18 02:35:00
9:55 PM,83.3,71.8,68,30.18,10.0,SE,6.9,-,N/A,,Clear,140,2013-07-18 02:55:00
10:15 PM,82.6,71.8,70,30.19,10.0,SE,6.9,-,N/A,,Clear,140,2013-07-18 03:15:00
10:35 PM,82.2,71.8,71,30.19,10.0,SE,8.1,-,N/A,,Clear,140,2013-07-18 03:35:00
10:55 PM,81.5,71.8,72,30.19,10.0,SSE,8.1,-,N/A,,Clear,150,2013-07-18 03:55:00
11:15 PM,81.0,71.8,74,30.19,10.0,SSE,8.1,-,N/A,,Clear,150,2013-07-18 04:15:00
11:35 PM,80.6,71.6,74,30.18,10.0,SSE,8.1,-,N/A,,Clear,150,2013-07-18 04:35:00
11:55 PM,80.8,71.1,72,30.18,10.0,SSE,6.9,-,N/A,,Clear,150,2013-07-18 04:55:00